�������l�o���
Date,Time,MP-1(��Sv/h),MP-2(��Sv/h),MP-3(��Sv/h),MP-4(��Sv/h),MP-5(��Sv/h),MP-6(��Sv/h),MP-7(��Sv/h),MP-8(��Sv/h),����,����(m/s),���J
2021/03/11,00:00,0.648,0.957,0.601,1.197,0.852,0.375,0.665,0.622,�k�k��,4.9,��
2021/03/11,00:10,0.650,0.958,0.602,1.195,0.851,0.374,0.664,0.622,�k�k��,4.6,��
2021/03/11,00:20,0.651,0.958,0.601,1.197,0.852,0.374,0.663,0.625,�k�k��,3.1,��
2021/03/11,00:30,0.650,0.957,0.600,1.196,0.851,0.375,0.665,0.623,�k�k��,3.8,��
2021/03/11,00:40,0.649,0.956,0.602,1.195,0.853,0.375,0.663,0.622,�k�k��,3.4,��
2021/03/11,00:50,0.649,0.960,0.600,1.197,0.850,0.375,0.663,0.624,�k�k��,3.8,��
2021/03/11,01:00,0.649,0.959,0.601,1.197,0.852,0.375,0.663,0.624,�k�k��,3.1,��
2021/03/11,01:10,0.652,0.958,0.601,1.193,0.851,0.375,0.664,0.622,�k�k��,3.2,��
2021/03/11,01:20,0.651,0.958,0.600,1.195,0.852,0.376,0.664,0.623,�k,2.6,��
2021/03/11,01:30,0.651,0.956,0.601,1.197,0.851,0.375,0.662,0.621,�k,3.2,��
2021/03/11,01:40,0.649,0.956,0.600,1.194,0.852,0.375,0.666,0.622,�k�k��,2.8,��
2021/03/11,01:50,0.650,0.957,0.601,1.198,0.852,0.373,0.663,0.621,�k�k��,2.3,��
2021/03/11,02:00,0.650,0.958,0.601,1.195,0.852,0.375,0.662,0.623,�k��,2.5,��
2021/03/11,02:10,0.651,0.957,0.600,1.196,0.852,0.374,0.664,0.623,�k��,2.0,��
2021/03/11,02:20,0.649,0.955,0.601,1.196,0.850,0.373,0.664,0.624,�k��,2.0,��
2021/03/11,02:30,0.651,0.957,0.600,1.196,0.851,0.375,0.665,0.623,�k��,2.5,��
2021/03/11,02:40,0.649,0.957,0.601,1.194,0.851,0.375,0.662,0.621,�k��,2.9,��
2021/03/11,02:50,0.651,0.956,0.601,1.195,0.849,0.375,0.662,0.623,�k��,3.6,��
2021/03/11,03:00,0.649,0.955,0.600,1.197,0.850,0.374,0.663,0.622,�k��,4.8,��
2021/03/11,03:10,0.651,0.957,0.602,1.195,0.851,0.374,0.663,0.621,�k��,4.9,��
2021/03/11,03:20,0.651,0.956,0.600,1.196,0.851,0.373,0.662,0.622,�k��,4.8,��
2021/03/11,03:30,0.650,0.955,0.600,1.196,0.850,0.376,0.663,0.622,�k��,4.5,��
2021/03/11,03:40,0.650,0.956,0.600,1.196,0.852,0.376,0.664,0.622,�k��,4.3,��
2021/03/11,03:50,0.650,0.956,0.601,1.196,0.849,0.373,0.664,0.622,�k��,4.3,��
2021/03/11,04:00,0.649,0.958,0.602,1.194,0.852,0.374,0.663,0.623,�k��,4.0,��
2021/03/11,04:10,0.650,0.957,0.601,1.195,0.850,0.374,0.662,0.622,���k��,3.4,��
2021/03/11,04:20,0.650,0.955,0.599,1.196,0.852,0.374,0.664,0.622,���k��,3.7,��
2021/03/11,04:30,0.651,0.956,0.600,1.194,0.849,0.374,0.664,0.622,���k��,3.6,��
2021/03/11,04:40,0.651,0.955,0.599,1.195,0.850,0.374,0.662,0.622,���k��,3.7,��
2021/03/11,04:50,0.650,0.955,0.601,1.196,0.851,0.375,0.664,0.623,���k��,3.7,��
2021/03/11,05:00,0.652,0.955,0.601,1.193,0.851,0.374,0.664,0.622,���k��,3.1,��
2021/03/11,05:10,0.650,0.956,0.599,1.197,0.851,0.373,0.663,0.623,���k��,3.7,��
2021/03/11,05:20,0.650,0.955,0.599,1.196,0.850,0.375,0.664,0.622,���k��,4.2,��
2021/03/11,05:30,0.651,0.955,0.598,1.196,0.850,0.375,0.663,0.623,���k��,4.1,��
2021/03/11,05:40,0.653,0.954,0.600,1.196,0.850,0.374,0.663,0.623,���k��,3.9,��
2021/03/11,05:50,0.651,0.956,0.600,1.194,0.851,0.373,0.662,0.620,���k��,3.9,��
2021/03/11,06:00,0.650,0.955,0.601,1.194,0.850,0.374,0.662,0.623,���k��,4.1,��
2021/03/11,06:10,0.651,0.957,0.600,1.196,0.849,0.374,0.663,0.623,��,4.1,��
2021/03/11,06:20,0.651,0.955,0.600,1.196,0.848,0.374,0.664,0.621,��,4.2,��
2021/03/11,06:30,0.650,0.956,0.600,1.195,0.851,0.373,0.662,0.623,���k��,4.1,��
2021/03/11,06:40,0.651,0.954,0.599,1.194,0.851,0.374,0.663,0.622,���k��,3.4,��
2021/03/11,06:50,0.651,0.958,0.600,1.196,0.849,0.374,0.663,0.623,���k��,2.6,��
2021/03/11,07:00,0.653,0.955,0.600,1.195,0.851,0.374,0.662,0.621,���k��,3.5,��
2021/03/11,07:10,0.652,0.954,0.600,1.198,0.851,0.374,0.664,0.621,���k��,6.1,��
2021/03/11,07:20,0.652,0.957,0.601,1.196,0.851,0.374,0.662,0.622,���k��,5.1,��
2021/03/11,07:30,0.652,0.957,0.602,1.196,0.850,0.375,0.665,0.623,���k��,4.3,��
2021/03/11,07:40,0.652,0.957,0.601,1.195,0.849,0.375,0.664,0.622,��,3.2,��
2021/03/11,07:50,0.652,0.955,0.600,1.197,0.850,0.375,0.665,0.621,���k��,3.0,��
2021/03/11,08:00,0.654,0.958,0.600,1.197,0.851,0.376,0.665,0.625,���k��,3.3,��
2021/03/11,08:10,0.653,0.958,0.599,1.199,0.851,0.374,0.665,0.622,��,3.6,��
2021/03/11,08:20,0.651,0.958,0.600,1.196,0.850,0.373,0.664,0.624,���k��,3.3,��
2021/03/11,08:30,0.653,0.956,0.601,1.198,0.850,0.375,0.667,0.624,���k��,2.3,��
2021/03/11,08:40,0.652,0.953,0.602,1.198,0.850,0.375,0.666,0.622,�쐼,1.9,��
2021/03/11,08:50,0.653,0.956,0.601,1.198,0.852,0.375,0.667,0.622,��,2.6,��
2021/03/11,09:00,0.653,0.957,0.601,1.198,0.850,0.375,0.666,0.623,�쓌,2.8,��
2021/03/11,09:10,0.654,0.957,0.602,1.195,0.851,0.376,0.664,0.623,�쓌,3.5,��
2021/03/11,09:20,0.653,0.956,0.600,1.198,0.851,0.376,0.664,0.623,�쓌,3.1,��
2021/03/11,09:30,0.654,0.954,0.602,1.197,0.852,0.376,0.665,0.624,��쓌,3.5,��
2021/03/11,09:40,0.654,0.957,0.601,1.198,0.852,0.374,0.662,0.624,��쓌,3.8,��
2021/03/11,09:50,0.651,0.956,0.602,1.198,0.851,0.376,0.665,0.624,�쓌,3.3,��
2021/03/11,10:00,0.651,0.957,0.602,1.199,0.852,0.375,0.665,0.625,��쓌,3.8,��
2021/03/11,10:10,0.651,0.958,0.602,1.199,0.849,0.376,0.663,0.623,�쓌,4.2,��
2021/03/11,10:20,0.653,0.956,0.601,1.200,0.852,0.375,0.663,0.622,�쓌,4.0,��
2021/03/11,10:30,0.652,0.958,0.600,1.197,0.852,0.376,0.664,0.621,�쓌,5.4,��
2021/03/11,10:40,0.654,0.957,0.601,1.198,0.854,0.375,0.662,0.623,��쓌,4.4,��
2021/03/11,10:50,0.653,0.958,0.601,1.197,0.853,0.375,0.664,0.623,��쓌,5.5,��
2021/03/11,11:00,0.652,0.957,0.600,1.198,0.853,0.375,0.664,0.622,�쓌,5.3,��
2021/03/11,11:10,0.653,0.959,0.601,1.196,0.853,0.375,0.663,0.620,�쓌,4.8,��
2021/03/11,11:20,0.653,0.959,0.600,1.195,0.853,0.374,0.664,0.621,��쓌,5.2,��
2021/03/11,11:30,0.652,0.960,0.602,1.198,0.854,0.374,0.665,0.621,��쓌,6.0,��
2021/03/11,11:40,0.651,0.958,0.600,1.198,0.853,0.373,0.664,0.621,��쓌,4.5,��
2021/03/11,11:50,0.653,0.960,0.601,1.198,0.853,0.375,0.663,0.620,��쓌,5.3,��
2021/03/11,12:00,0.652,0.959,0.602,1.197,0.853,0.377,0.664,0.622,�쓌,6.0,��
2021/03/11,12:10,0.653,0.959,0.602,1.198,0.852,0.375,0.663,0.622,��쓌,4.8,��
2021/03/11,12:20,0.653,0.960,0.601,1.199,0.853,0.375,0.664,0.622,�쓌,5.6,��
2021/03/11,12:30,0.651,0.959,0.603,1.200,0.853,0.376,0.665,0.623,��쓌,5.8,��
2021/03/11,12:40,0.650,0.961,0.602,1.199,0.852,0.377,0.665,0.623,��쓌,6.1,��
2021/03/11,12:50,0.652,0.959,0.603,1.199,0.854,0.375,0.664,0.622,��쓌,5.2,��
2021/03/11,13:00,0.651,0.961,0.603,1.199,0.852,0.375,0.665,0.620,��쓌,5.3,��
2021/03/11,13:10,0.652,0.961,0.602,1.200,0.854,0.378,0.665,0.621,�쓌,5.3,��
2021/03/11,13:20,0.651,0.961,0.604,1.198,0.852,0.376,0.664,0.622,��쓌,6.3,��
2021/03/11,13:30,0.653,0.959,0.601,1.195,0.851,0.377,0.664,0.622,��쓌,5.6,��
2021/03/11,13:40,0.654,0.960,0.602,1.199,0.853,0.377,0.665,0.622,��쓌,5.0,��
2021/03/11,13:50,0.650,0.961,0.602,1.198,0.854,0.376,0.664,0.620,��쓌,6.7,��
2021/03/11,14:00,0.651,0.960,0.603,1.198,0.853,0.377,0.665,0.621,��쓌,6.3,��
2021/03/11,14:10,0.650,0.962,0.603,1.199,0.854,0.378,0.665,0.623,��쓌,6.2,��
2021/03/11,14:20,0.653,0.962,0.603,1.199,0.853,0.377,0.664,0.621,��쓌,6.2,��
2021/03/11,14:30,0.652,0.961,0.601,1.201,0.855,0.376,0.665,0.623,��쓌,6.8,��
2021/03/11,14:40,0.651,0.961,0.602,1.200,0.852,0.377,0.665,0.621,��쓌,5.6,��
2021/03/11,14:50,0.650,0.960,0.604,1.199,0.854,0.377,0.665,0.620,��쓌,6.1,��
2021/03/11,15:00,0.654,0.960,0.605,1.199,0.853,0.378,0.664,0.621,��쓌,6.0,��
2021/03/11,15:10,0.652,0.960,0.603,1.199,0.857,0.377,0.664,0.621,��쓌,6.3,��
2021/03/11,15:20,0.651,0.962,0.603,1.202,0.854,0.377,0.665,0.621,��쓌,6.3,��
2021/03/11,15:30,0.653,0.961,0.603,1.199,0.854,0.377,0.666,0.620,��쓌,5.8,��
2021/03/11,15:40,0.652,0.960,0.604,1.199,0.853,0.379,0.665,0.621,��쓌,4.7,��
2021/03/11,15:50,0.653,0.960,0.605,1.198,0.854,0.377,0.664,0.623,�쓌,5.0,��
2021/03/11,16:00,0.652,0.962,0.605,1.197,0.853,0.378,0.666,0.621,��쓌,6.9,��
2021/03/11,16:10,0.653,0.961,0.603,1.199,0.854,0.378,0.664,0.622,��쓌,7.9,��
2021/03/11,16:20,0.653,0.961,0.604,1.199,0.855,0.378,0.666,0.622,��쓌,9.4,��
2021/03/11,16:30,0.653,0.963,0.602,1.201,0.854,0.379,0.664,0.624,��쓌,9.1,��
2021/03/11,16:40,0.651,0.963,0.605,1.199,0.855,0.377,0.665,0.626,��쓌,9.3,��
2021/03/11,16:50,0.653,0.962,0.604,1.202,0.854,0.378,0.666,0.625,��쓌,10.0,��
2021/03/11,17:00,0.650,0.962,0.602,1.201,0.854,0.378,0.665,0.623,��쓌,10.5,��
2021/03/11,17:10,0.653,0.960,0.605,1.198,0.856,0.378,0.664,0.623,��쓌,9.2,��
2021/03/11,17:20,0.653,0.962,0.605,1.199,0.854,0.376,0.666,0.624,��쓌,9.0,��
2021/03/11,17:30,0.652,0.961,0.603,1.200,0.857,0.378,0.666,0.624,��쓌,8.9,��
2021/03/11,17:40,0.653,0.961,0.604,1.200,0.854,0.378,0.667,0.624,��쓌,9.5,��
2021/03/11,17:50,0.653,0.961,0.605,1.199,0.856,0.378,0.668,0.624,��,8.8,��
2021/03/11,18:00,0.654,0.961,0.603,1.200,0.856,0.379,0.667,0.625,��쓌,8.0,��
2021/03/11,18:10,0.653,0.962,0.604,1.200,0.857,0.378,0.667,0.624,��쓌,8.3,��
2021/03/11,18:20,0.653,0.961,0.604,1.199,0.854,0.377,0.666,0.624,��,7.7,��
2021/03/11,18:30,0.653,0.963,0.603,1.198,0.857,0.378,0.667,0.625,��,7.8,��
2021/03/11,18:40,0.653,0.963,0.604,1.198,0.855,0.379,0.668,0.625,��,7.2,��
2021/03/11,18:50,0.654,0.961,0.605,1.198,0.855,0.379,0.668,0.625,��,6.7,��
2021/03/11,19:00,0.652,0.961,0.604,1.197,0.855,0.377,0.667,0.624,��,5.7,��
2021/03/11,19:10,0.652,0.961,0.604,1.198,0.854,0.377,0.667,0.623,��쐼,5.1,��
2021/03/11,19:20,0.652,0.962,0.604,1.196,0.856,0.378,0.667,0.624,��쐼,4.4,��
2021/03/11,19:30,0.653,0.962,0.606,1.198,0.855,0.376,0.668,0.623,�쐼,4.3,��
2021/03/11,19:40,0.653,0.960,0.605,1.198,0.855,0.377,0.667,0.624,�쐼,4.0,��
2021/03/11,19:50,0.655,0.962,0.605,1.200,0.854,0.378,0.667,0.624,�쐼,5.1,��
2021/03/11,20:00,0.652,0.962,0.602,1.196,0.858,0.378,0.666,0.624,�쐼,3.8,��
2021/03/11,20:10,0.652,0.960,0.603,1.197,0.854,0.377,0.667,0.623,�쐼,3.6,��
2021/03/11,20:20,0.653,0.962,0.603,1.200,0.856,0.377,0.669,0.623,��쐼,3.5,��
2021/03/11,20:30,0.651,0.961,0.602,1.197,0.857,0.376,0.666,0.624,��,3.2,��
2021/03/11,20:40,0.653,0.960,0.602,1.198,0.854,0.377,0.667,0.623,��,4.7,��
2021/03/11,20:50,0.653,0.962,0.604,1.201,0.854,0.376,0.666,0.624,��,5.9,��
2021/03/11,21:00,0.653,0.962,0.602,1.202,0.855,0.379,0.667,0.623,��,5.8,��
2021/03/11,21:10,0.652,0.959,0.602,1.199,0.854,0.377,0.665,0.624,��,5.4,��
2021/03/11,21:20,0.653,0.959,0.604,1.199,0.855,0.378,0.665,0.624,��,4.9,��
2021/03/11,21:30,0.651,0.960,0.602,1.198,0.854,0.378,0.667,0.622,��쓌,5.3,��
2021/03/11,21:40,0.653,0.963,0.604,1.198,0.853,0.377,0.667,0.624,��,3.5,��
2021/03/11,21:50,0.654,0.959,0.603,1.198,0.856,0.378,0.666,0.623,��,3.9,��
2021/03/11,22:00,0.652,0.960,0.602,1.200,0.856,0.376,0.665,0.623,��,3.7,��
2021/03/11,22:10,0.651,0.961,0.603,1.197,0.855,0.376,0.666,0.623,��,3.8,��
2021/03/11,22:20,0.650,0.959,0.603,1.198,0.856,0.376,0.665,0.624,��쐼,3.6,��
2021/03/11,22:30,0.651,0.959,0.603,1.196,0.856,0.377,0.666,0.623,��쐼,4.2,��
2021/03/11,22:40,0.652,0.960,0.603,1.199,0.855,0.377,0.665,0.623,��쐼,4.5,��
2021/03/11,22:50,0.652,0.959,0.604,1.197,0.854,0.376,0.665,0.624,��쐼,4.0,��
2021/03/11,23:00,0.652,0.959,0.603,1.200,0.854,0.378,0.664,0.625,��,4.0,��
2021/03/11,23:10,0.652,0.959,0.605,1.200,0.854,0.378,0.666,0.622,��쐼,3.2,��
2021/03/11,23:20,0.653,0.957,0.604,1.195,0.853,0.376,0.665,0.623,��쐼,4.5,��
2021/03/11,23:30,0.652,0.958,0.605,1.197,0.853,0.377,0.665,0.623,�쐼,3.7,��
2021/03/11,23:40,0.653,0.959,0.603,1.197,0.854,0.377,0.667,0.622,�쐼,4.2,��
2021/03/11,23:50,0.651,0.959,0.604,1.197,0.853,0.377,0.665,0.623,���쐼,4.8,��
